Location: Unspecified
(0.0000°N, 0.0000°E)
Time: 00:13:02
(UTC+01:00)

BREEZE-M DEB (TANK) - Visible Passes

Search period start: 25 January 2017 00:00
Search period end: 04 February 2017 00:00
Orbit: 322 x 16339 km, 49.5° (Epoch: 23 January)

Date Brightness Start Highest point End Pass type
(mag) Time Alt. Az. Time Alt. Az. Time Alt. Az.
25 Jan 8.3 01:38:25 15° N 03:20:50 35° E 04:53:01 10° SE visible
25 Jan 8.7 06:52:20 10° NW 08:34:29 47° W 10:19:26 10° S visible
26 Jan 8.3 02:18:19 17° N 04:01:55 49° E 05:42:04 10° SE visible
27 Jan 8.3 02:58:14 16° N 04:42:41 63° E 06:27:50 10° SE visible
28 Jan 8.3 03:38:12 14° NNW 05:23:26 79° E 07:11:48 10° SSE visible
29 Jan 8.4 04:18:13 10° NNW 06:04:13 86° W 07:54:36 10° SSE visible
30 Jan 8.5 00:03:30 10° NNE 01:32:05 14° E 02:30:13 10° ESE visible
30 Jan 8.5 05:01:27 10° NW 06:45:06 70° W 08:36:36 10° SSE visible
31 Jan 8.4 00:42:23 16° NNE 02:13:32 27° E 03:41:19 10° ESE visible
31 Jan 8.6 05:46:06 10° NW 07:26:07 55° W 09:17:54 10° SSE visible
01 Feb 8.3 01:22:35 21° NNE 02:53:50 40° E 04:34:28 10° SE visible
01 Feb 8.7 06:33:07 10° NW 08:07:22 41° W 09:58:25 10° S visible
02 Feb 8.3 02:02:52 24° N 03:33:46 54° E 05:22:12 10° SE visible
03 Feb 8.3 02:43:15 26° N 04:13:49 69° E 06:07:18 10° SE visible
